Location: Forest Hills
(36.0651°N, 86.8403°W)
Time: 22:02:50
(UTC+00:00)

BlueWalker 3 - Visible Passes

Search period start: 17 January 2026 00:00
Search period end: 27 January 2026 00:00
Orbit: 451 x 463 km, 53.2° (Epoch: 17 January)

Date Brightness Start Highest point End Pass type
(mag) Time Alt. Az. Time Alt. Az. Time Alt. Az.
17 Jan 4.1 00:53:45 10° S 00:54:31 15° S 00:54:31 15° S visible
18 Jan 3.4 00:18:53 10° S 00:21:14 20° SE 00:21:14 20° SE visible
18 Jan 3.7 23:44:15 10° SSE 23:46:19 15° SE 23:47:52 12° E visible
19 Jan 4.0 01:20:02 10° WSW 01:21:39 24° WSW 01:21:39 24° WSW visible
20 Jan 1.9 00:44:34 10° SW 00:48:06 65° NW 00:48:12 65° NNW visible
21 Jan 1.6 00:09:10 10° SW 00:12:44 90° S 00:14:40 25° NE visible
21 Jan 1.8 23:33:51 10° SW 23:37:22 64° SE 23:40:54 10° NE visible
22 Jan 4.3 01:12:49 10° WNW 01:14:47 16° NW 01:14:47 16° NW visible
23 Jan 3.8 00:36:57 10° W 00:39:39 20° NNW 00:41:04 16° N visible
24 Jan 3.6 00:01:11 10° W 00:04:10 25° NW 00:07:10 10° NNE visible
26 Jan 4.4 23:55:07 10° NW 23:55:53 11° NNW 23:56:39 10° N visible
